Regional Weather Roundup
Issued by NWS Lake Charles, LA

Home | Current Version | Previous Version | Text Only | Print | Product List | Glossary On
Versions: 1 2 3 4 5 6 7 8 9 10 11 12 13 14 15 16 17 18 19 20 21 22 23 24 25 26 27 28 29 30 31 32 33 34 35 36 37 38 39 40 41 42 43 44 45 46 47 48 49 50
000
ASUS44 KLCH 231510
RWRLCH
REGIONAL WEATHER ROUNDUP
NATIONAL WEATHER SERVICE LAKE CHARLES LA
1000 AM CDT MON APR 23 2018

Note: "fair" indicates few or no clouds below 12,000 feet with no
significant weather and/or obstructions to visibility.


ACROSS SOUTHEAST TEXAS

CITY           SKY/WX    TMP DP  RH WIND       PRES   REMARKS
BEAUMONT       FAIR      66  51  58 W10       30.06R
BEAUMONT CITY  FAIR      67  51  57 W8        30.07S
ORANGE         FAIR      66  54  65 W9        30.08R
JASPER         FAIR      62  54  75 W6        30.08R
$$

ACROSS CENTRAL LOUISIANA

CITY           SKY/WX    TMP DP  RH WIND       PRES   REMARKS
LEESVILLE      FAIR      61  52  73 W9        30.03R
FULLERTON      FAIR      61  52  72 VRB6      30.00S
ALEXANDRIA INT CLOUDY    58  52  80 W7        30.01S
ESLER FIELD    CLOUDY    56  53  90 W8        30.02S
DERIDDER       FAIR      62  50  66 W10       30.06S
OAKDALE        FAIR      62  52  70 W6        30.04R
OPELOUSAS      PTSUNNY   61  51  70 NW8       30.04S
$$

ACROSS SOUTHWEST AND SOUTH CENTRAL LOUISIANA

CITY           SKY/WX    TMP DP  RH WIND       PRES   REMARKS
SULPHUR        FAIR      67  53  61 W8        30.06S
LAKE CHARLES   FAIR      66  52  60 W7        30.05R
CHENNAULT INT  SUNNY     66  50  55 W12       30.05S
CAMERON PHI    SUNNY     66  52  59 W9G16     30.05S
DEQUINCY       FAIR      63  51  65 W7        30.05S
JENNINGS       FAIR      63  52  67 W10       30.05S
LAFAYETTE      FAIR      65  53  65 NW7       30.04R
NEW IBERIA     FAIR      65  52  62 W10       30.05R
ABBEVILLE      FAIR      65  52  63 W10       30.05R
PATTERSON      FAIR      66  52  60 W13       30.05S
SALT POINT       N/A    N/A N/A N/A W8        30.04R
$$

SELECTED SITES ACROSS THE REGION

CITY           SKY/WX    TMP DP  RH WIND       PRES   REMARKS
HOUSTON BUSH   FAIR      67  51  56 NW9       30.09S
HOUSTON HOBBY  FAIR      68  50  52 NW10      30.09R
GALVESTON      FAIR      68  52  56 W8        30.10R
COLLEGE STAT   SUNNY     63  50  62 NW12      30.11S
CONROE         MOSUNNY   65  52  62 NW9       30.09S
HUNTSVILLE     SUNNY     64  51  62 NW8       30.09S
LUFKIN         SUNNY     61  51  70 NW9       30.07R
SHREVEPORT     FAIR      61  54  77 NW12      30.01R
MONROE         CLOUDY    56  51  84 W9        30.00S
NATCHEZ MS     CLOUDY    56  50  80 W5        30.02R
BATON ROUGE    PTSUNNY   62  51  67 W15       30.02R
N.O. INTL ARPT FAIR      65  53  65 W10       30.02F
SLIDELL        FAIR      64  49  57 NW8       30.01S
$$

MARINE REPORTS

STATION/POSITION TIME  SKY/WX   TEMP    WIND        PRES    VSBY
                                AIR SEA DIR/SP/G
                 (UTC)          (F)     (DEG/KT/KT) (MB)    (MI)
BUOY 30 S HIGH I 1350            66 69  320/  8/  8 1018.4
WVE H/P(F/S)=  1/ 6

SEA RIM ST PARK  1500            66     290/  9/ 12 1018.7R
PORT ARTHUR      1442            66 67  280/  8/ 13 1018.0R
SABINE PASS N    1442            66 69  260/  6/ 11 1019.5R
TEXAS POINT      NOT AVBL
CALCASIEU PASS   1448            65 68  290/  9/ 12 1016.7R
LK CHARLES BEACH 1448            63 67              1017.0R
MARSH ISLAND     NOT AVBL
FRESH WATER LOCK 1448            66 70              1017.5R
AMERADA PASS     1448            65 64  270/  3/  7 1017.4R
$$



USA.gov is the U.S. government's official web portal to all federal, state and local government web resources and services.